619 Sabadell. Observer R. Josa. 0.50-m f/4 reflector + CCD.
662 Lick Observatory, Mount Hamilton. Observers V. Reddy, F. Marchis,
J. Emery, M. Wong. Measurer V. Reddy. 1.0-m f/17.5 reflector + CCD.
750 Hobbs Observatory, Fall Creek. Observer N. Moritz. Measurer R. Elliott.
0.6-m f/5 Newtonian reflector + CCD.
762 Four Winds Observatory, Lake Leelanau. Observer R. Elliott. 0.3-m
Schmidt-Cassegrain + CCD.
939 Observatorio Rodeno. Observer J. Castellano. 0.20-m f/10
Schmidt-Cassegrain + CCD.
A24 New Millennium Observatory, Mozzate. Observer E. Cozzi. 0.36-m f/7.6
Schmidt-Cassegrain + CCD.
A27 Eridanus Observatory, Langelsheim. Observer E. Meyer. 0.15-m refractor
+ CCD.
A77 Observatoire Chante-Perdrix, Dauban. Observer F. Kugel. 0.20-m f/5.5
Schmidt-Cassegrain + CCD.
B20 Observatori Carmelita, Tiana. Observer J. M. Aymami. 0.20-m f/4.2
Schmidt-Cassegrain + CCD.
D88 Hiratsuka. Observer Y. Sugiyama. 0.25-m f/5.0 reflector + CCD.
J47 Observatorio Nazaret. Observer G. Muler. 0.20-m f/6.70 Schmidt-Cassegrain
+ CCD. Long. = 346.4440, rho cos phi' = 0.87501, rho sin phi' = +0.48260.
J53 Posadas. Observer R. Benavides. 0.23-m f/5.0 Schmidt-Cassegrain + CCD.
J64 La Mata. Observer J. Garcia. 0.20-m f/5.0 Schmidt-Cassegrain + CCD.
J67 Observatorio La Puebla de Vallbona. Observer E. Arce. 0.25-m f/5
Schmidt-Cassegrain + CCD.
J70 Obs. Astronomico Vega del Thader, El Palmar. Observer J. P. Navarro P.
0.20-m Schmidt-Cassegrain + CCD.
J78 Murcia. Observer J. Sanchez. 0.25-m f/10.5 Schmidt-Cassegrain + CCD.
Orbital elements:
C/2007 E2 (Lovejoy)
Epoch 2007 Apr. 10.0 TT = JDT 2454200.5
T 2007 Mar. 27.51249 TT MPC
q 1.0930008 (2000.0) P Q
z +0.0002659 Peri. 340.54602 -0.54777105 -0.27972428
+/-0.0000358 Node 232.43504 -0.57306568 -0.56119216
e 0.9997093 Incl. 95.88837 -0.60954294 +0.77898503
From 1174 observations 2007 Mar. 18-May 30, mean residual 0".57.
The "original" and "future" barycentric values of 1/a are +0.000617
and +0.000816 (+/- 0.000036) AU^-1, respectively.
Brian G. Marsden (C) Copyright 2007 MPC M.P.E.C. 2007-K75
Read MPEC 2007-K74
Read MPEC 2007-K76
Our Web policy. Index to the CBAT/MPC/ICQ pages.